sat.trackr.live / text

‹ back to catalog

STARLINK-34175

NORAD 64169 · 2025-112Z

PAYLOAD ACTIVE UNKNOWN

§ Identity

Operator
Country
US
Launch date
2025-05-27
Launch site
AFWTR
Launch vehicle
Mass (kg)
RCS (m²)

Purposes: comms

External: N2YO · Heavens-Above · Gunter

§ Orbital elements

Epoch: 2026-09-20T14:24:55.419552Z

Period
93.91 min
Inclination
97.2847°
Eccentricity
0.0000950
Mean motion
15.33446114 rev/d
Perigee alt
464.9 km
Apogee alt
466.2 km
Semi-major
6,843.7 km
B*
1.3811e-4
RAAN
310.6696°
Arg perigee
68.5001°
Mean anomaly
291.6343°
Rev number
7,276

§ Raw data

STARLINK-341751 64169U 25112Z   26263.60064143  .00004386  00000+0  13811-3 0  99972 64169  97.2847 310.6696 0000950  68.5001 291.6343 15.33446114 72762

JSON: /api/v1/satellites/64169 · /tle

For live sub-satellite position, see the globe view (requires WebGL).

§ Visibility from observer

Set your observer location to see the next 7 days of passes ≥ 10°. The values pass through the URL so the page stays shareable.

No JS? Fill the form by hand. The geolocation button needs JavaScript.